Tracking 17844 objects as of 26-August-2016
HD Live streaming from Space Station
objects crossing your sky now

EUTE HOT BIRD 13A (HB 6)

Track EUTE HOT BIRD 13A (HB 6) now!
EUTE HOT BIRD 13A (HB 6) is classified as:


NORAD ID: 27499
Int'l Code: 2002-038A
Perigee: 36,051.8 km
Apogee: 36,071.1 km
Inclination: 0.2 °
Period: 1,449.8 minutes
Semi major axis: 42432 km
RCS: 15.0118 m2 (large)
Launch date: August 21, 2002
Source: European Telecommunications Satellite Organization (EUTE)
Launch site: AIR FORCE EASTERN TEST RANGE (AFETR)

Cable programming; direct-to-home broadcasting; 28 Ku-band, 4 Ka-band transponders
Your satellite tracking list
Your tracking list is empty





NASA's NSSDC Master Catalog

Two Line Element Set (TLE):
1 27499U 02038A   16238.28328262  .00000000  00000-0  10000-3 0  9991
2 27499   0.1638  82.5600 0002278 100.5081 263.5861  0.99324394 51309
Source of the keplerian elements: AFSPC

N2YO: 504